Wind_Speed
29 25 28 28 30 35 32 29 37 25 26 24 21 20 21 21 22 17 13 12 11 9 13 13 14 16 16 15 12 13 15 18
28 24 27 27 32 38 34 36 32 36 28 27 29 23 24 23 18 14 11 9 11 11 12 16 16 15 11 11 13 17 18 20
29 27 30 30 37 38 43 46 43 38 31 32 32 28 23 17 15 13 11 11 12 10 13 14 10 10 12 16 18 20 24 26
33 33 31 38 35 38 49 39 53 35 33 39 34 24 18 16 15 14 12 11 12 12 14 11 11 13 17 20 22 25 28 30
33 33 32 39 38 48 42 33 41 45 37 37 26 22 17 15 13 12 11 12 12 15 14 10 14 18 20 23 26 29 33 35
34 33 29 30 27 39 43 52 53 45 34 27 22 18 15 15 15 13 12 13 15 11 11 15 18 22 25 28 31 34 37 39
31 32 27 24 36 28 35 46 30 22 22 16 19 16 14 15 12 12 13 9 10 13 16 19 22 25 29 33 35 38 40 42
24 29 26 29 23 22 27 34 31 21 21 17 14 13 14 13 15 15 11 11 14 16 20 23 26 30 33 37 40 42 44 44
24 24 22 22 21 21 22 22 19 20 17 16 16 16 13 16 15 13 12 14 17 21 24 28 31 34 37 40 43 44 44 46
25 24 27 22 21 18 16 14 16 13 15 14 15 14 12 11 13 13 14 18 21 25 29 33 35 38 41 43 43 44 47 47
16 16 17 15 13 11 10 9 9 12 13 13 14 13 13 11 12 14 17 21 25 29 33 36 39 41 43 43 44 46 45 44
10 11 15 14 13 12 13 14 13 15 16 16 14 13 12 11 15 17 20 25 28 32 35 39 41 43 43 46 47 44 43 45
10 11 12 12 12 12 15 15 16 18 16 14 12 13 13 15 18 21 25 29 31 35 38 40 42 41 45 48 47 46 47 49
11 13 12 13 13 12 12 13 15 15 15 14 15 18 18 19 21 25 28 33 33 37 40 42 40 44 47 50 54 53 48 49
11 13 13 11 10 9 10 14 14 16 16 16 20 23 25 28 29 35 37 38 39 42 41 41 43 47 50 52 54 54 53 55
12 13 15 14 13 14 14 16 17 19 19 19 21 23 23 25 31 36 39 42 42 45 43 44 47 52 53 54 54 54 55 56
17 18 19 20 21 22 22 21 21 19 16 15 19 23 26 30 34 36 39 41 45 48 46 47 54 57 57 59 58 57 53 56
21 19 19 22 26 30 21 22 19 18 19 19 23 27 29 33 35 37 43 44 47 47 49 55 59 58 61 61 60 56 56 59
21 20 26 22 31 26 30 27 21 20 21 24 27 30 31 33 38 40 44 48 49 50 57 61 60 62 63 61 57 57 59 63
25 25 23 27 26 23 16 13 17 20 25 28 30 32 30 33 35 39 41 50 49 57 59 58 59 61 61 59 58 59 63 67
Wind_Direction
255 259 260 249 249 250 258 265 241 233 240 243 258 264 269 265 265 259 237 226 227 247 258 265 291 298 304 300 300 307 315 315
259 255 255 266 251 266 258 267 251 234 242 240 250 251 257 261 252 203 202 221 237 244 279 290 299 294 291 296 303 309 312 314
270 268 269 266 253 246 263 264 233 226 235 241 240 236 237 227 195 210 222 225 239 278 287 294 290 293 300 304 309 311 312 313
268 265 263 261 260 261 264 258 233 228 244 238 225 214 213 196 197 214 222 244 263 281 288 287 286 294 301 309 312 313 310 309
262 268 271 243 286 252 233 251 262 242 241 233 227 204 176 205 218 236 254 260 269 272 276 277 292 297 304 308 311 310 308 307
264 257 247 246 249 246 243 253 267 234 234 227 225 189 188 215 230 245 252 269 267 254 270 285 294 301 311 311 308 306 305 303
252 244 249 242 239 248 251 257 227 216 229 190 164 176 212 221 232 245 261 250 244 259 277 289 302 307 305 304 303 302 300 299
233 224 230 236 231 229 222 222 222 183 153 165 180 196 214 227 244 249 231 240 255 276 290 299 301 300 300 299 298 299 300 303
139 122 129 137 148 159 156 146 139 155 164 176 197 217 231 243 240 225 240 260 280 287 295 297 297 296 296 298 299 300 304 305
136 139 126 144 138 125 131 153 165 171 185 198 216 227 241 232 221 236 260 276 286 293 295 293 294 296 299 300 302 305 305 306
127 126 121 120 125 139 156 182 198 204 209 213 224 235 229 223 241 259 273 286 289 291 291 295 299 300 303 305 307 305 304 301
138 142 140 147 162 176 193 203 207 222 222 228 230 223 231 245 259 274 283 286 289 292 297 302 304 305 306 307 305 302 301 299
174 172 168 166 178 195 210 214 219 222 221 216 218 230 241 256 267 279 284 287 291 298 302 305 304 304 305 303 304 303 301 302
197 198 199 201 206 206 204 199 204 209 212 221 232 241 249 260 272 279 287 293 295 302 304 303 304 308 308 308 309 311 303 302
212 217 226 230 237 233 212 207 207 222 230 241 248 253 258 265 275 281 288 295 296 306 308 307 308 309 311 311 309 307 303 302
245 254 251 248 256 256 243 233 227 235 246 257 266 275 279 281 280 285 288 291 297 309 308 307 310 310 310 311 308 304 301 302
250 251 248 249 249 248 244 234 233 241 254 264 278 286 289 287 287 284 292 298 304 307 306 307 309 310 310 310 305 303 302 305
264 267 260 248 255 246 246 252 245 251 260 279 288 293 292 288 283 284 295 295 305 302 307 308 308 311 308 306 305 304 304 307
273 281 280 276 282 277 276 248 256 275 285 287 294 295 289 282 283 290 293 298 304 307 304 303 306 307 306 304 303 303 304 307
287 284 278 293 280 285 256 257 277 284 291 297 293 292 289 287 284 293 301 304 303 302 302 305 304 303 304 303 302 304 307 308
Height
5797 5800 5800 5802 5804 5807 5807 5809 5810 5813 5814 5816 5818 5819 5820 5819 5819 5821 5821 5823 5825 5827 5829 5828 5827 5826 5824 5824 5824 5823 5820 5819
5790 5795 5795 5795 5795 5797 5800 5802 5804 5807 5808 5810 5812 5814 5814 5815 5816 5818 5818 5821 5823 5825 5825 5825 5823 5822 5822 5822 5820 5819 5817 5815
5787 5788 5788 5788 5791 5790 5793 5795 5796 5798 5802 5805 5807 5808 5809 5812 5815 5816 5817 5819 5821 5821 5821 5820 5819 5820 5819 5818 5816 5814 5813 5811
5781 5783 5784 5784 5783 5785 5784 5785 5791 5792 5796 5799 5802 5803 5807 5810 5813 5816 5816 5817 5819 5818 5818 5817 5818 5816 5815 5813 5812 5811 5810 5806
5775 5775 5776 5775 5777 5777 5782 5784 5789 5789 5791 5794 5797 5799 5804 5808 5810 5812 5813 5814 5814 5816 5816 5814 5814 5813 5811 5810 5808 5806 5803 5800
5770 5771 5773 5775 5777 5780 5779 5780 5782 5785 5788 5792 5795 5799 5803 5808 5810 5810 5811 5811 5813 5813 5812 5812 5810 5810 5808 5806 5803 5801 5798 5796
5765 5765 5766 5768 5773 5773 5774 5775 5779 5783 5787 5791 5796 5799 5804 5806 5807 5808 5809 5809 5810 5811 5810 5809 5807 5805 5803 5801 5798 5795 5793 5789
5760 5760 5762 5764 5766 5768 5772 5775 5777 5781 5786 5793 5795 5798 5803 5803 5805 5806 5806 5806 5808 5806 5806 5804 5802 5800 5797 5795 5792 5789 5785 5780
5756 5758 5759 5762 5766 5769 5772 5774 5779 5783 5787 5789 5794 5798 5799 5802 5803 5803 5804 5805 5804 5803 5802 5800 5797 5794 5792 5789 5785 5780 5775 5771
5761 5763 5761 5769 5769 5769 5773 5779 5782 5785 5787 5790 5793 5795 5798 5799 5800 5800 5801 5801 5801 5799 5797 5795 5791 5788 5785 5781 5776 5770 5766 5762
5764 5766 5766 5767 5769 5774 5776 5779 5782 5784 5787 5789 5792 5793 5797 5796 5798 5799 5798 5796 5796 5794 5793 5788 5783 5780 5777 5772 5767 5762 5758 5754
5767 5768 5767 5769 5773 5775 5778 5781 5782 5786 5787 5791 5790 5792 5793 5794 5795 5794 5792 5793 5791 5788 5784 5779 5775 5771 5767 5762 5758 5754 5749 5744
5769 5770 5771 5772 5773 5776 5778 5778 5781 5784 5785 5787 5787 5790 5791 5791 5790 5789 5788 5786 5783 5778 5774 5771 5766 5762 5756 5752 5750 5744 5739 5732
5770 5771 5772 5773 5775 5776 5776 5776 5780 5781 5783 5784 5785 5788 5786 5785 5784 5783 5780 5778 5773 5769 5765 5762 5757 5752 5747 5741 5735 5730 5730 5724
5770 5771 5772 5772 5774 5774 5773 5774 5775 5778 5781 5782 5783 5782 5780 5779 5777 5775 5773 5769 5765 5761 5757 5752 5748 5743 5737 5730 5724 5720 5714 5709
5769 5769 5770 5771 5770 5770 5772 5773 5774 5775 5775 5776 5776 5774 5773 5771 5769 5766 5763 5760 5756 5751 5747 5743 5738 5732 5726 5721 5715 5709 5703 5696
5769 5769 5769 5769 5768 5769 5768 5770 5771 5770 5770 5770 5770 5768 5766 5763 5760 5757 5754 5750 5746 5742 5738 5733 5727 5721 5714 5709 5705 5700 5693 5686
5765 5766 5765 5763 5763 5762 5762 5765 5765 5764 5763 5764 5763 5761 5759 5756 5753 5749 5746 5742 5738 5733 5728 5722 5716 5710 5704 5699 5693 5687 5680 5674
5762 5762 5758 5757 5758 5754 5756 5759 5760 5759 5759 5758 5756 5755 5752 5748 5745 5742 5738 5734 5729 5722 5718 5712 5706 5700 5693 5688 5682 5675 5668 5660
5758 5757 5756 5742 5756 5751 5751 5754 5756 5756 5755 5752 5750 5748 5744 5740 5737 5733 5729 5725 5719 5713 5707 5701 5695 5688 5681 5674 5668 5661 5654 5645